EW9523 Weather Reports


Display with metric or nautical units.
time (UTC)temp
F
wind
direction
speed
MPH
gust
MPH
rain 1hr
in
rain 24hr
in
rain mn
in
humidity
%
barometer
mb
20260906090746 54 43 2.0 4.0 0.00 0.00 0.00 78 1012.8
20260906090226 54 66 2.0 3.0 0.00 0.00 0.00 78 1012.9
20260906084742 54 78 1.0 3.0 0.00 0.00 0.00 78 1012.8
20260906083740 55 69 1.0 4.0 0.00 0.00 0.00 77 1012.9
20260906083713 55 112 0.0 2.0 0.00 0.00 0.00 77 1012.9
20260906081730 56 112 1.0 2.0 0.00 0.00 0.00 75 1012.8
20260906080720 56 94 0.0 0.0 0.00 0.00 0.00 74 1012.7
20260906075721 56 41 0.0 0.0 0.00 0.00 0.00 74 1012.6
20260906074716 58 61 0.0 0.0 0.00 0.00 0.00 71 1012.7
20260906073715 58 26 0.0 0.0 0.00 0.00 0.00 71 1012.7
20260906072710 59 26 0.0 0.0 0.00 0.00 0.00 70 1012.7
20260906072624 59 22 0.0 1.0 0.00 0.00 0.00 69 1012.7
20260906070656 59 19 1.0 2.0 0.00 0.00 0.00 69 1012.7
20260906065653 60 53 2.0 3.0 0.00 0.00 0.00 68 1012.8
20260906064651 60 46 1.0 3.0 0.00 0.00 0.00 67 1012.8
20260906063645 60 21 1.0 3.0 0.00 0.00 0.00 67 1012.8
20260906062639 60 5 1.0 2.0 0.00 0.00 0.00 67 1012.8
20260906061639 61 355 2.0 3.0 0.00 0.00 0.00 66 1012.7
20260906060627 61 324 2.0 4.0 0.00 0.00 0.00 65 1012.7
20260906060106 61 5 1.0 3.0 0.00 0.00 0.00 64 1012.7
20260906054619 61 26 1.0 3.0 0.00 0.00 0.00 63 1012.8
20260906053615 62 51 0.0 2.0 0.00 0.00 0.00 62 1012.7
20260906052615 62 355 1.0 4.0 0.00 0.00 0.00 61 1012.9
20260906052050 63 48 0.0 2.0 0.00 0.00 0.00 60 1012.9
20260906050611 63 5 1.0 4.0 0.00 0.00 0.00 59 1012.9
20260906050050 64 22 1.0 4.0 0.00 0.00 0.00 58 1012.9
20260906044606 64 0 1.0 4.0 0.00 0.00 0.00 58 1012.9
20260906043607 64 22 2.0 5.0 0.00 0.00 0.00 56 1013.0
20260906042606 65 16 2.0 5.0 0.00 0.00 0.00 56 1012.9
20260906041557 65 329 1.0 3.0 0.00 0.00 0.00 56 1013.0
20260906040544 65 5 2.0 5.0 0.00 0.00 0.00 57 1012.8
20260906040008 65 46 2.0 5.0 0.00 0.00 0.00 57 1012.7
20260906035449 66 11 1.0 3.0 0.00 0.00 0.00 57 1012.8
20260906033529 66 16 0.0 4.0 0.00 0.00 0.00 57 1012.7
20260906032522 67 15 0.0 3.0 0.00 0.00 0.00 56 1012.6
20260906031945 67 316 1.0 4.0 0.00 0.00 0.00 57 1012.5
20260906030459 68 346 2.0 4.0 0.00 0.00 0.00 54 1012.5
20260906025459 69 35 1.0 6.0 0.00 0.00 0.00 51 1012.3
20260906024938 71 190 1.0 3.0 0.00 0.00 0.00 50 1012.4
20260906023448 72 21 2.0 4.0 0.00 0.00 0.00 47 1012.3
20260906022923 73 119 0.0 2.0 0.00 0.00 0.00 44 1012.3
20260906021449 74 265 1.0 4.0 0.00 0.00 0.00 44 1012.3
20260906020448 75 194 2.0 9.0 0.00 0.00 0.00 42 1012.3
20260906015447 76 218 2.0 6.0 0.00 0.00 0.00 42 1012.3
20260906014923 76 253 2.0 7.0 0.00 0.00 0.00 42 1012.3
20260906013920 76 288 4.0 11.0 0.00 0.00 0.00 42 1012.2
20260906012436 76 214 3.0 8.0 0.00 0.00 0.00 41 1012.1
20260906011434 77 249 3.0 11.0 0.00 0.00 0.00 41 1012.1
20260906010432 77 248 3.0 8.0 0.00 0.00 0.00 40 1012.1
20260906005430 78 214 3.0 9.0 0.00 0.00 0.00 40 1012.1
20260906004907 78 227 3.0 10.0 0.00 0.00 0.00 40 1012.2
20260906003428 78 213 4.0 9.0 0.00 0.00 0.00 40 1012.3
20260906002429 78 202 3.0 9.0 0.00 0.00 0.00 41 1012.3
20260906001912 78 194 4.0 10.0 0.00 0.00 0.00 42 1012.3
20260906000425 79 195 5.0 14.0 0.00 0.00 0.00 42 1012.2
20260905235424 79 206 4.0 13.0 0.00 0.00 0.00 43 1012.2
20260905234423 79 273 6.0 14.0 0.00 0.00 0.00 42 1012.2
20260905233420 79 171 4.0 13.0 0.00 0.00 0.00 42 1012.1
20260905232420 80 254 5.0 13.0 0.00 0.00 0.00 43 1012.1
20260905231418 80 148 5.0 12.0 0.00 0.00 0.00 43 1012.1
20260905230416 80 213 5.0 13.0 0.00 0.00 0.00 44 1012.1
20260905225416 80 187 5.0 12.0 0.00 0.00 0.00 43 1012.1
20260905224414 80 194 4.0 11.0 0.00 0.00 0.00 42 1012.1
20260905223413 81 223 5.0 15.0 0.00 0.00 0.00 41 1012.3
20260905222410 81 290 3.0 10.0 0.00 0.00 0.00 41 1012.2
20260905221845 80 169 3.0 9.0 0.00 0.00 0.00 41 1012.3
20260905220410 79 218 3.0 7.0 0.00 0.00 0.00 42 1012.3
20260905215410 79 297 5.0 11.0 0.00 0.00 0.00 40 1012.5
20260905214410 80 227 4.0 11.0 0.00 0.00 0.00 40 1012.5
20260905213410 80 63 3.0 7.0 0.00 0.00 0.00 38 1012.5
20260905212402 80 165 4.0 11.0 0.00 0.00 0.00 39 1012.5
20260905211402 79 119 3.0 11.0 0.00 0.00 0.00 39 1012.6
20260905210402 79 171 2.0 6.0 0.00 0.00 0.00 40 1012.7
20260905205402 78 144 3.0 11.0 0.00 0.00 0.00 41 1012.6
20260905204400 78 136 3.0 12.0 0.00 0.00 0.00 41 1012.7
20260905203346 78 311 4.0 11.0 0.00 0.00 0.00 37 1012.8
20260905202346 78 215 4.0 11.0 0.00 0.00 0.00 42 1012.8
20260905201346 78 185 3.0 7.0 0.00 0.00 0.00 44 1012.9
20260905200828 77 180 4.0 11.0 0.00 0.00 0.00 47 1013.0
20260905195344 77 115 3.0 10.0 0.00 0.00 0.00 48 1013.1
20260905194330 76 86 2.0 7.0 0.00 0.00 0.00 50 1013.1
20260905193328 76 110 3.0 7.0 0.00 0.00 0.00 50 1013.1
20260905192329 75 135 3.0 10.0 0.00 0.00 0.00 51 1013.2
20260905191328 75 71 3.0 7.0 0.00 0.00 0.00 51 1013.2
20260905190329 74 139 3.0 9.0 0.00 0.00 0.00 53 1013.4
20260905185324 73 198 2.0 7.0 0.00 0.00 0.00 54 1013.5
20260905184324 73 121 2.0 5.0 0.00 0.00 0.00 55 1013.5
20260905184243 73 184 2.0 7.0 0.00 0.00 0.00 55 1013.6
20260905182801 72 218 3.0 9.0 0.00 0.00 0.00 56 1013.6
20260905181323 71 124 1.0 6.0 0.00 0.00 0.00 59 1013.6
20260905180324 69 153 2.0 6.0 0.00 0.00 0.00 60 1013.6
20260905175324 69 293 1.0 4.0 0.00 0.00 0.00 62 1013.6
20260905174313 68 29 2.0 5.0 0.00 0.00 0.00 62 1013.7
20260905173313 67 331 1.0 5.0 0.00 0.00 0.00 67 1013.7
20260905172312 66 313 2.0 6.0 0.00 0.00 0.00 69 1013.6
20260905171310 65 15 2.0 7.0 0.00 0.00 0.00 70 1013.6
20260905170310 64 0 4.0 10.0 0.00 0.00 0.00 72 1013.6
20260905165310 63 0 3.0 8.0 0.00 0.00 0.00 74 1013.5
20260905164310 62 342 3.0 9.0 0.00 0.00 0.00 75 1013.5
20260905163310 61 28 4.0 10.0 0.00 0.00 0.00 76 1013.4
20260905162309 61 37 3.0 10.0 0.00 0.00 0.00 77 1013.5
20260905161311 60 355 4.0 9.0 0.00 0.00 0.00 79 1013.5
20260905160310 59 24 5.0 11.0 0.00 0.00 0.00 80 1013.5
20260905155308 58 30 4.0 10.0 0.00 0.00 0.00 81 1013.6
20260905154308 57 14 4.0 11.0 0.00 0.00 0.00 83 1013.5
20260905153308 56 70 3.0 12.0 0.00 0.00 0.00 84 1013.5
20260905152308 56 325 4.0 12.0 0.00 0.00 0.00 85 1013.5
20260905151308 55 346 4.0 10.0 0.00 0.00 0.00 86 1013.4
20260905151235 55 350 3.0 10.0 0.00 0.00 0.00 87 1013.3
20260905145746 54 325 3.0 9.0 0.00 0.00 0.00 87 1013.3
20260905144306 54 323 2.0 7.0 0.00 0.00 0.00 87 1013.3
20260905143306 54 355 1.0 5.0 0.00 0.00 0.00 86 1013.3
20260905142306 54 331 2.0 6.0 0.00 0.00 0.00 86 1013.2
20260905141246 54 297 1.0 5.0 0.00 0.00 0.00 86 1013.1
20260905140234 54 289 2.0 7.0 0.00 0.00 0.00 86 1013.0
20260905135222 54 30 2.0 5.0 0.00 0.00 0.00 86 1013.0
20260905134222 54 309 3.0 7.0 0.00 0.00 0.00 86 1012.9
20260905133222 54 320 3.0 7.0 0.00 0.00 0.00 86 1012.8
20260905132651 54 345 2.0 6.0 0.00 0.00 0.00 86 1012.9
20260905131218 54 15 2.0 6.0 0.00 0.00 0.00 86 1012.8
20260905130218 55 339 2.0 6.0 0.00 0.00 0.00 86 1012.9
20260905125216 55 321 3.0 7.0 0.00 0.00 0.00 86 1012.8
20260905124213 55 0 3.0 9.0 0.00 0.00 0.00 85 1012.8
20260905123212 55 323 2.0 6.0 0.00 0.01 0.00 85 1012.9
20260905122212 55 0 3.0 7.0 0.00 0.01 0.00 85 1012.9
20260905121204 56 342 3.0 7.0 0.00 0.01 0.00 85 1012.9
20260905120204 56 342 3.0 6.0 0.00 0.01 0.00 85 1012.8
20260905115651 56 17 1.0 4.0 0.00 0.01 0.00 84 1012.8
20260905114202 56 318 2.0 4.0 0.00 0.01 0.00 84 1012.8
20260905113156 56 355 2.0 9.0 0.00 0.01 0.00 84 1012.8
20260905112156 56 298 2.0 6.0 0.00 0.01 0.00 84 1012.8
20260905111120 56 338 2.0 5.0 0.00 0.01 0.00 83 1012.8
20260905110105 56 311 2.0 6.0 0.00 0.01 0.00 83 1012.9
20260905105103 56 15 2.0 6.0 0.00 0.01 0.00 83 1012.9
20260905104104 56 33 1.0 6.0 0.00 0.01 0.00 83 1012.9
20260905103102 57 28 1.0 6.0 0.00 0.01 0.00 83 1012.9
20260905102102 57 44 2.0 5.0 0.00 0.01 0.00 83 1012.9
20260905101058 57 323 2.0 6.0 0.00 0.01 0.00 83 1013.0
20260905100057 56 271 1.0 4.0 0.00 0.01 0.00 83 1012.9
20260905095057 57 284 1.0 6.0 0.00 0.01 0.00 82 1013.0
20260905094055 57 5 2.0 6.0 0.00 0.01 0.00 82 1013.0
20260905093034 57 5 1.0 6.0 0.00 0.01 0.00 82 1013.0
20260905092025 57 327 2.0 5.0 0.00 0.01 0.00 82 1013.0